COSMOS 651 DEB, 38843

Orbit data source: Space-Track

COSMOS 651 DEB, 38843 is space debris in LEO originally from a launch on Wed, 15 May 1974 UTC launched from the Tyuratam Missile And Space Complex (TTMTR). Debris objects in space refer to the collection of defunct objects orbiting the Earth. Examples of debris include non-operational satellites, rocket bodies, and fragments generated from explosions, collisions, or faulty payload assembly.

Loading next visibility...
Identifier
38843, 1974-029D
Orbit
LEO
Country
Flag of CISCIS
Related business
Manufacturer
Unknown
Mission
Spacecraft
Bus & Motor
Unknown
Mass
Unknown
Launch date (UTC)
1974-05-15 (52 years ago)
Launch vehicle
Unknown
Launch site
Tyuratam Missile And Space Complex (TTMTR)
Object type
Payload
Rocket body
Debris
Shape & HBR
Unknown shape, 0.1 m
Radar Cross Section
Small (<0.1 m²)

Expand to show TLE details & history
Last TLE update: 1 month ago

TLE from 1 month ago
0 COSMOS 651 DEB
1 38843U 74029D   26140.95720347 -.00000014  00000-0  56199-4 0  9998
2 38843  64.9713 262.4541 0025805  27.9625 332.2822 13.96381459329356
Epoch: 2026-05-20T22:58Z
TLE epoch observation values (Epoch: 2026-05-20T22:58:22.379Z)
Latitude
0.00002°
Longitude
39.25155°
Altitude
891.658 km
Speed
7.415 km/s
True Right ascension
17h 29m 48s
True Declination
0° 00' 00"
Sunlit
Object was in full shadow at epoch
Visualization orbit readout
Latitude
Unknown
Longitude
Unknown
Altitude
Unknown
Speed
Unknown
Apparent Right ascension
Unknown
Apparent Declination
Unknown
Sunlit
N/A
Visualization observer readout
Local Sidereal Time
23:08:15
Azimuth
Unknown
Elevation
Unknown
Doppler factor
Unknown
Orbital elements
Apogee altitude
923.752 km
Perigee altitude
886.163 km
Semi-major axis
7,283.094 km
Eccentricity
0.00258
Inclination
64.9713°
RAAN
262.4541°
Arg. of periapsis
27.9625°
True anomaly
332.14427°
Mean anomaly
332.2822°
Eccentric anomaly
332.21327°
Mean motion
3.49196 °/min
Orbital period
103.09 mins
BSTAR
0.000056199
Loading maneuver chart data...
Computing Atmospheric mass density...
Loading historical data...
Loading historical data...
Loading historical data...
Loading historical data...
Loading historical data...
Loading historical data...
Loading historical data...

Documentation

Showing up to 5 results
|